Regional Weather Roundup
Issued by NWS

Home | Current Version | Previous Version | Text Only | Print | Product List | Glossary On
Versions: 1 2 3 4 5 6 7 8 9 10 11 12 13 14 15 16 17 18 19 20 21 22 23 24 25 26 27 28 29 30 31 32 33 34 35 36 37 38 39 40 41 42 43 44 45 46 47 48 49 50
000
ASHW40 PHFO 281343
RWRHI

WEATHER ROUNDUP FOR HAWAII
NATIONAL WEATHER SERVICE HONOLULU HI
300 AM HST SUN AUG 28 2016

THIS IS AN AUTOMATED REPORT THAT HAS NOT BEEN QUALITY CONTROLLED.

NOTE..."FAIR" INDICATES FEW OR NO CLOUDS BELOW 12,000 FEET WITH NO
SIGNIFICANT WEATHER AND/OR OBSTRUCTIONS TO VISIBILITY.

* - THESE SITES REPORT LIMITED FIELDS

HIZ001>004-281400-
KAUAI-NIIHAU-

CITY           SKY/WX    TMP DP  RH WIND       PRES   REMARKS
LIHUE APT      CLOUDY    78  71  79 E16       29.95S
PORT ALLEN*      N/A     77 N/A N/A NE14        N/A
POIPU*           N/A     77 N/A N/A E9G18       N/A
PRINCEVILLE*     N/A     73 N/A N/A SE5         N/A
KOKOLE POINT*  NOT AVBL
MOLOAA DAIRY*    N/A     75  68  78 E5G13       N/A
WAIMEA HTS*      N/A     73  64  73 E2          N/A
PUU OPAE*        N/A     66  61  82 CALM        N/A
PUU LUA*       NOT AVBL
MAKAHA RIDGE*    N/A     68  64  88 E1          N/A
$$

HIZ005>011-281400-
OAHU-

CITY           SKY/WX    TMP DP  RH WIND       PRES   REMARKS
HONOLULU       MOCLDY    77  66  68 NE10      29.92F
KALAELOA       MOCLDY    76  67  73 NE3       29.93F
KANEOHE MCB    CLOUDY    76  70  82 E8        29.91S
WHEELER FIELD  FAIR      71  68  92 CALM      29.95F
BELLOWS*         N/A    N/A N/A N/A E13G23      N/A
KAHUKU*          N/A    N/A N/A N/A VRB1        N/A
WHEELER*         N/A    N/A N/A N/A E6G12       N/A
WAIANAE HARBOR NOT AVBL
DILLINGHAM*      N/A     72  66  83 MISG        N/A
KAHUKU TRN*      N/A     82  82 100 N6G24       N/A  HX  97
KAWAILOA*        N/A     70  66  88 E3G20       N/A
KII*             N/A     75  72  88 E14G31      N/A
MAKUA RANGE*     N/A     86  73  66 NW7G15      N/A  HX  93
OAHU FOREST NW NOT AVBL
SCHOFIELD BRK*   N/A     81  77  89 MISG        N/A
SCHOFIELD S*   NOT AVBL
WAIANAE VLY*   NOT AVBL
KUAOKALA*        N/A    N/A N/A N/A NE12        N/A
HONOULIUULI*   NOT AVBL
MOKUOLOE IS*   NOT AVBL
PALEHUA*         N/A     64  64 100 NE13G26     N/A
WAIAWA PHB*    NOT AVBL
$$

HIZ012>013-281400-
MOLOKAI-

CITY           SKY/WX    TMP DP  RH WIND       PRES   REMARKS
MOLOKAI AIRPT  CLOUDY    75  69  81 N9        29.93F
KALAUPAPA      NOT AVBL
MAKAPULAPAI*     N/A     73  70  88 E17G26      N/A
MOLOKAI 1*     NOT AVBL
PUU ALII*        N/A     61  61 100 N2G12       N/A
$$

HIZ016-281400-
KAHOOLAWE-

CITY           SKY/WX    TMP DP  RH WIND       PRES   REMARKS
KAHOOLAWE*       N/A     70 N/A N/A NE1         N/A
HAKIOAWA*        N/A     70  69  95 MISG      30.34S
HONOKANAIA*      N/A     75  69  81 NE9G25    29.85F
KANELOA*         N/A     73  72  94 NE16G25   29.97
KEALIALALO*    NOT AVBL
LUA MAKIKA*    NOT AVBL
$$

HIZ014>015-281400-
LANAI-

CITY           SKY/WX    TMP DP  RH WIND       PRES   REMARKS
LANAI CITY     MOCLDY    70  68  93 NE13      29.96F
LANAI 1*       NOT AVBL
$$

HIZ017>028-281400-
MAUI-

CITY           SKY/WX    TMP DP  RH WIND       PRES   REMARKS
KAHULUI        PTCLDY    74  70  87 NE17      29.91F
KAPALUA-W MAUI NOT AVBL
HANA AIRPORT   LGT RAIN  73  72  94 E9        29.96R
HANA*            N/A     75 N/A N/A NE9G20      N/A
HALEAKALA SUMM   N/A     45  45 100 E16G29      N/A
MAALAEA BAY*   NOT AVBL
HALEAKALA*     NOT AVBL
KAUPO GAP*       N/A     70  66  88 N6G18       N/A
KULA 1*          N/A     54  54 100 NE3         N/A
$$

HIZ023>026-281400-
BIG ISLAND OF HAWAII COAST AND LOWER SLOPES-

CITY           SKY/WX    TMP DP  RH WIND       PRES   REMARKS
KAILUA KONA    CLOUDY    81  68  64 N5        29.87F
HILO           LGT RAIN  72  70  94 N3        29.92F FOG
HONOKAA*         N/A     68 N/A N/A VRB1        N/A
KAWAIHAE MWT*    N/A     81 N/A N/A W6          N/A
KAWAIHAE*        N/A     79 N/A N/A W3        29.88F
SOUTH POINT*     N/A     70 N/A N/A NW9         N/A
UPOLU AIRPORT* NOT AVBL
KAMUELA*       PTSUNNY   66  64  94 NE10      30.01S
HAKALAU*         N/A     54  53  96 S3          N/A
KALOKO-HONOKO*   N/A     75  66  73 NE5       29.86F
PALI 2*          N/A     64  63  94 S3          N/A
KEALAKOMO*       N/A     75  70  83 S7G18       N/A
KAUPULEHU*       N/A     73  63  68 S2          N/A
KAPAPALA*        N/A     65  63  94 VRB3        N/A
LOWER KAHUKU*    N/A     59  57  94 N2G8        N/A
PUHE CS*         N/A     79  72  78 NW3G10      N/A
PUHO CS*         N/A     72  69  90 E2          N/A
PTA KEAMUKU*     N/A     61  55  82 CALM        N/A
WAIKOLOA*        N/A     72  61  68 E9          N/A
$$

HIZ027>028-281400-
BIG ISLAND OF HAWAII INTERIOR AND SUMMMITS-

CITY           SKY/WX    TMP DP  RH WIND       PRES   REMARKS
BRADSHAW FIELD CLOUDY    53  47  81 SE3       30.23F
MK VISITOR CEN   N/A     48  37  66 N10         N/A
MAUNA KEA*       N/A     34  18  51 CALM        N/A
MAUNA LOA*       N/A    N/A N/A N/A MISG        N/A
MAUNA LOA 1*   NOT AVBL
PTA KIPUKA*      N/A     54  54 100 SE3         N/A
PTA RANGE 17*    N/A     57  54  88 E7G13       N/A
PTA WEST*        N/A     59  55  88 S5G15       N/A
NENE CABIN*      N/A     52  48  87 NE5G12      N/A
AHUMOA*          N/A     50  48  93 E7          N/A
PTA PORTABLE*  NOT AVBL
PUU MALI*        N/A     54  46  76 S6          N/A
$$

HIC003-281400-
NORTHWEST ISLANDS-

CITY           SKY/WX    TMP DP  RH WIND       PRES   REMARKS
MIDWAY ISLAND  CLOUDY    77  73  88 NE9       29.94F
MIDWAY NOS*      N/A     77 N/A N/A MISG      29.93F
FRENCH FRIGATE NOT AVBL
$$

PHZ110>124-180-281400-
BUOY REPORTS

STATION/POSITION TIME  TEMP    WIND        PRES    WAVE   SWELL
                       AIR SEA DIR/SP/G            HT/PER HT/DIR
                 (UTC) (F)     (DEG/KT/KT) (MB)    (FT/S) (FT/D)
BUOY 51001       NOT AVBL
BUOY 51101       1250   78 81   60/ 16/ 17 1015.4F   6/ 8   3/100
BUOY 51100       NOT AVBL
BUOY 51002       NOT AVBL
BUOY 51003       1250   80 83   70/ 12/ 12 1011.9F   4/13   3/160
BUOY 51004       1250   81 82   60/ 17/ 21 1010.6F   7/ 8   3/170
BARBERS PT BUOY  NOT AVBL
WAIMEA BAY BUOY  1304      81                N/A     5/ 7   2/320
KAILUA BAY BUOY  1311      81                N/A     7/ 8   2/120
LANAI BUOY       1315      82                N/A     2/13   2/190
BARBERS PT 2     NOT AVBL
PAUWELA MAUI     1309      81                N/A     6/ 8
HILO             1312      81                N/A     5/ 7   2/120
KANEOHE BAY BUOY 1306      80                N/A     6/ 7
HANALEI KAUAI    NOT AVBL
KAHULUI HARBOR   1300   76 82   40/ 16/ 21 1012.7F
HONOLULU HARBOR  1300   77 81   60/  6/ 11 1013.9F
KILO NALU        NOT AVBL
HILO HARBOR      1300   71 82   CALM  /  2 1013.0F
MOKUOLOE         1200   78 83  110/ 10/ 13 1013.8F
NAWILIWILI       1300   78 81   80/ 15/ 18 1013.9F
WHOTS BUOY       NOT AVBL
BUOY 51028       NOT AVBL
$$

......................KEY........................................
  SKY/WX - SKY CONDITIONS/PRESENT WEATHER
  TMP    - TEMPERATURE IN FAHRENHEIT
  DWPT   - DEWPOINT IN FAHRENHEIT
  RH     - RELATIVE HUMIDITY IN PERCENT
  WIND   - DIRECTION AND SPEED /MPH FOR ISLANDS...KTS FOR BUOYS/
  PRES   - MEAN SEA LEVEL PRESSURE IN INCHES OF HG
  VSB    - VISIBILITY IN MILES
  HX     - HEAT INDEX
  WCI    - WIND CHILL INDEX
  VRB    - VARIABLE WIND DIRECTION
  N/A    - NOT AVAILABLE




USA.gov is the U.S. government's official web portal to all federal, state and local government web resources and services.